Regional Weather Roundup
Issued by NWS Wakefield, VA

Home | Current Version | Previous Version | Graphics & Text | Print | Product List | Glossary On
Versions: 1 2 3 4 5 6 7 8 9 10 11 12 13 14 15 16 17 18 19 20 21 22 23 24 25 26 27 28 29 30 31 32 33 34 35 36 37 38 39 40 41 42 43 44 45 46 47 48 49 50
000
ASUS41 KAKQ 222015
RWRAKQ

REGIONAL WEATHER ROUNDUP
NATIONAL WEATHER SERVICE WAKEFIELD VA
400 PM EDT FRI MAY 22 2015

Note: "fair" indicates few or no clouds below 12,000 feet with no
significant weather and/or obstructions to visibility. * = Denotes
station may not report precipitation (e.g., rain,snow,etc.),
thunder or fog.

VAZ042-051-052>054-056-222100-
NORTHERN VIRGINIA

CITY           SKY/WX    TMP DP  RH WIND       PRES   REMARKS
WASH NATIONAL  MOSUNNY   78  43  28 W14G26    30.09S
DULLES         MOSUNNY   74  43  32 W17G24    30.09S
FORT BELVOIR   SUNNY     75  42  30 W10G21    30.09F
QUANTICO       SUNNY     75  41  29 W14       30.11F
FREDERICKSBRG* SUNNY     75  44  32 SW9       30.11F
STAFFORD*      SUNNY     73  38  28 SW8G18    30.15F
WARRENTON      SUNNY     76  47  35 W6G17     30.10F
CULPEPER*      SUNNY     74  44  34 SW14      30.11F
MANASSAS*      MOSUNNY   73  45  35 W7        30.10S
LEESBURG*      SUNNY     73  45  35 W17G32    30.09F
WINCHESTER     SUNNY     73  23  15 W21G32    30.10R
FRONT ROYAL*   FAIR      72  45  37 W6        30.10S
LURAY*         FAIR      77  43  29 W12       30.12S
$$

VAZ048-049-060>072-079>083-222100-
CENTRAL AND SOUTH CENTRAL VIRGINIA

CITY           SKY/WX    TMP DP  RH WIND       PRES   REMARKS
RICHMOND       MOSUNNY   75  41  29 VRB5      30.14F
CHESTERFIELD*  NOT AVBL
PETERSBURG*    SUNNY     74  40  29 NW8       30.16S
HANOVER        SUNNY     73  40  30 W7        30.15F
TAPPAHANNOCK*  SUNNY     76  34  22 SW8       30.13F
QUINTON*       FAIR      72  43  34 NW3G9     30.14F
CHARLOTTSVILLE MOSUNNY   72  40  31 VRB5      30.13F
GORDONSVILLE*  FAIR      73  43  34 SW8       30.12F
ORANGE*        SUNNY     75  45  33 SW15      30.13F
LOUISA*        MOSUNNY   73  45  35 SW7       30.13F
BUMPASS*       FAIR      73  43  34 W6        30.13F
FARMVILLE*     SUNNY     74  40  29 S3        30.14F
CREWE*         FAIR      72  39  30 W3        30.16F
FORT PICKETT*  FAIR      72  42  33 NW7G20    30.16F
CHASE CITY*    FAIR      73  43  33 CALM      30.17S
CLARKSVILLE*   FAIR      72  41  33 CALM      30.17F
SOUTH HILL*    SUNNY     71  42  35 CALM      30.23S
LAWRENCEVILLE* FAIR      72  43  35 SW6       30.16F
EMPORIA*       SUNNY     72  43  35 W7        30.18S
$$

VAZ088>098-222100-
SOUTHEAST VIRGINIA

CITY           SKY/WX    TMP DP  RH WIND       PRES   REMARKS
NORFOLK        SUNNY     73  40  30 VRB5      30.15S
VIRGINIA BEACH MOSUNNY   74  43  32 VRB7      30.14S
NORFOLK NAVAL  MOSUNNY   75  44  33 W7        30.16F
WEST POINT*    SUNNY     76  37  24 W10       30.15F
SALUDA*        FAIR      72  46  39 NW3       30.13S
NEWPORT NEWS   SUNNY     76  45  33 VRB7G16   30.15S
LANGLEY AFB    SUNNY     71  46  41 NW8       30.14R
FORT EUSTIS    SUNNY     72  52  48 NW9       30.13F
WILLIAMSBURG*  SUNNY     77  48  36 NW9       30.16S
HR EXEC AP*    FAIR      73  46  38 N5        30.17R
FRANKLIN*      SUNNY     72  43  34 W8        30.16S
WAKEFIELD      SUNNY     73  44  35 W7        30.16S
$$

VAZ020-022-025-037-045-222100-
WEST CENTRAL AND SOUTHWEST VIRGINIA

CITY           SKY/WX    TMP DP  RH WIND       PRES   REMARKS
STAUNTON*      SUNNY     72  39  29 NW7       30.16F
WAYNESBORO*    FAIR      70  42  36 SW5       30.15F
HOT SPRINGS VA PTSUNNY   63  37  37 W14G20    30.21F
LYNCHBURG      SUNNY     71  41  33 VRB3      30.18F
DANVILLE       SUNNY     75  39  27 VRB3      30.18F
SOUTH BOSTON*  FAIR      73  39  28 CALM      30.17F
MARTINSVILLE   SUNNY     75  37  25 CALM      30.21S
ROANOKE        MOSUNNY   72  41  32 W13G22    30.21S
BLACKSBURG     MOSUNNY   64  43  45 W7        30.25F
DUBLIN*        MOSUNNY   67  43  40 N7        30.24F
MARION*        MOSUNNY   66  43  42 W10       30.28S
HILLSVILLE*    SUNNY     64  39  39 NW10      30.25S
RICHLANDS*     FAIR      62  22  21 CALM      30.27S
WISE*          SUNNY     64  36  34 NW3       30.29S
ABINGDON*      SUNNY     67  40  37 NW3       30.26S
$$

MDZ021>025-VAZ099-100-222100-
SOUTHERN MARYLAND AND THE DELMARVA PENINSULA

CITY           SKY/WX    TMP DP  RH WIND       PRES   REMARKS
PATUXENT RIVER MOSUNNY   74  42  31 W16G23    30.10S
BAY BRIDGE APT   N/A    N/A N/A N/A W9G17     30.07S
LEONARDTOWN    SUNNY     72  41  33 W13G18    30.12F
DOVER          MOSUNNY   73  48  40 W20G26    30.02S
GEORGETOWN     SUNNY     73  41  31 W12G24    30.07S
EASTON         SUNNY     75  46  35 NW12G23   30.11F
CAMBRIDGE      SUNNY     73  41  31 W13G20    30.09S
SALISBURY      SUNNY     72  42  34 W17G23    30.08S
OCEAN CITY     SUNNY     73  44  35 W13G18    30.08S
WALLOPS ISLAND SUNNY     71  46  40 W16       30.11S
ACCOMACK*      SUNNY     70  46  43 W9        30.13S
$$

NCZ012>017-030>032-222100-
NORTH CENTRAL AND EASTERN NORTH CAROLINA

CITY           SKY/WX    TMP DP  RH WIND       PRES   REMARKS
ROANOKE RAPIDS FAIR      72  43  35 NW5       30.17S
RALEIGH        MOSUNNY   73  44  35 VRB5      30.19F
ELIZABETH CITY SUNNY     72  46  39 NE6       30.16S
AHOSKIE*       SUNNY     69  41  35 CALM      30.17S
EDENTON*       SUNNY     71  46  41 W9        30.17S
CURRITUCK*     SUNNY     71  41  33 N6        30.16S
KILL DEVIL HLS SUNNY     67  37  32 E5        30.16F
MANTEO         SUNNY     67  46  46 CALM      30.17F
CAPE HATTERAS  SUNNY     68  48  48 E6        30.18R
TARBORO*       FAIR      74  43  32 W8        30.18S
GOLDSBORO      SUNNY     73  45  36 VRB2      30.15F
WASHINGTON     SUNNY    N/A N/A N/A N3        30.18S
GREENVILLE     SUNNY     73  46  38 N6        30.19S
NEW BERN       MOSUNNY   73  50  44 VRB5G16   30.18F
WILMINGTON     CLOUDY    74  54  49 MISG      30.17S
$$

VAZ048-222100-
ELSEWHERE

CITY           SKY/WX    TMP DP  RH WIND       PRES   REMARKS
HARRISBURG PA  MOSUNNY   73  42  32 NW21G30   30.01S
BALTIMORE      MOSUNNY   74  42  31 W14G23    30.06S
ANNAPOLIS      MOSUNNY   73  40  30 W13G22    30.06F
ANDREWS AFB    MOSUNNY   74  44  34 W10G22    30.08S
PHILADELPHIA   PTSUNNY   75  39  27 W21G30    30.00S
HENDERSON NC   SUNNY     72  37  28 W5        30.19S
GREENSBORO     MOSUNNY   73  39  29 NW6       30.19F
ROCKY MOUNT    SUNNY     73  43  33 NW6       30.17F
$$

VAZ100-222100-
MARINE

STATION/POSITION TIME  TEMP    WIND        PRES    WAVE   SWELL
                       AIR SEA DIR/SP/G            HT/PER HT/PER
                 (UTC) (F)     (DEG/KT/KT) (MB)    (FT/S) (FT/S)
BRANDYWINE LGT   1900   67 63  280/ 18/ 20 1017.3F
CAPE MAY NJ      1900   67 66  270/ 15/ 17 1017.0F
LEWES DE         1900   69 63  290/ 17/ 21 1017.5S
15NM E FENWICK I 1950   64 61              1018.0S   2/ 4
OCEAN-CITY-INLET 1900   69 61  330/ 14/ 18 1018.1R
WACHAPREAGUE VA  1900   71 69  290/  4/  8 1020.3R
THOMAS POINT MD  2000   72 65  280/ 17/ 21 1018.7F
GOOSES REEF MD   2000   70 66  270/ 10/ 14 1020.0F   2/ 3
SOLOMONS ISLAND  1900      69                N/A
BISHOPS HEAD MD  1900   67 70  260/ 11/ 12 1019.3F
PINEY POINT MD   1900          320/ 13/ 14   N/A
CAMBRIDGE MD     1900   70 69  280/ 10/ 15 1018.7F
LEWISETTA VA     1900   69 69              1019.7F
RAPPAHANNOCK LGT 1900          320/  4/  5 1021.1R
STINGRAY PT      2000   70 69  300/  8/ 10 1020.1F   1
YORK RVR RNG VA  1900   68     300/ 10/ 13 1020.1R
YORKTOWN VA      1900   68 71  330/ 11/ 12 1020.4S
JAMESTOWN VA     2000   70 75  300/ 10/ 12 1019.8F
DOMINION TERM VA 1900   67     320/ 10/ 11 1021.1R
KIPTOPEKE VA     1900      72  270/  6/  9   N/A
CHES BAY BRIDGE  1900   66 67  280/  2/  4 1020.8R
CAPE HENRY VA    1900   66     320/  6/  7 1019.9R
CHESAPEAKE LGHT  1900   65     290/ 10/ 10 1021.9R
WILLOUBY STN VA  1900   67     260/ 11/ 12 1021.6R
CAPE HENRY BUOY  1928      62                N/A     2/ 7
1ST LANDING BUOY 2000      68              1020.8S
CAPE CHARLES BUO 1926      65                N/A     2/ 6   2/ 6
OFFSHORE WE BUOY 1911      61                N/A     3/ 6   3/ 6
64NM E OF VA BCH 1950   61 61  290/ 12/ 14 1020.7R   5/ 7   3/ 7
DUCK PIER NC     1900   63 67   40/  8/ 10 1020.5R
44100 DUCK FRF   1924      62                N/A     4/ 8
44056 DUCK FRF   1911      66                N/A     3/ 7
OREGON INLET NC  1900   63 67   30/  8/ 10 1021.8R
HATTERAS NC      1900   65 72  360/  7/  9 1021.3R
DIAMOND SHLS NC  1950   64 77   20/ 12/ 14 1021.9R   4/ 9   3/ 9
CAPE LOOKOUT NC  2000   67      70/ 11/ 12 1021.4S
$$


USA.gov is the U.S. government's official web portal to all federal, state and local government web resources and services.